Location: Nebula Knoll Observatory
(43.6666°N, 71.0000°W)
Time: 16:51:01
(UTC-04:00)

Daily predictions for brighter satellites

Satellite Brightness Start Highest point End
(mag) Time Altitude Azimuth Time Altitude Azimuth Time Altitude Azimuth
SPOT 5 4.0 20:59:22 10° SE 21:03:35 30° ENE 21:08:01 10° N
Cosmos 1867 3.9 21:00:31 10° S 21:05:37 43° ESE 21:10:46 10° NE
Cosmos 1076 Rocket 4.1 21:04:04 10° SSE 21:08:10 40° E 21:12:15 10° NNE
Cosmos 2082 4.3 21:03:09 10° SW 21:08:43 62° WNW 21:14:20 10° NNE
Cosmos 614 Rocket 4.1 21:08:47 10° SSW 21:14:00 83° WNW 21:19:14 10° NNE
Cosmos 2297 Rocket 2.9 21:08:48 10° SW 21:14:22 60° WNW 21:20:00 10° NNE
USA 234 3.7 21:08:37 10° ENE 21:14:37 37° SE 21:20:33 10° SSW
Meteor 1-21 Rocket 4.5 21:11:46 10° SSE 21:17:15 51° E 21:22:39 10° NNE
Cosmos 1850 Rocket 4.0 21:12:42 10° SSW 21:17:51 75° ESE 21:23:04 10° NNE
RESURS DK-1 3.6 21:14:44 10° N 21:18:26 30° NE 21:22:06 10° ESE
Cosmos 2221 2.6 21:15:16 10° N 21:19:41 87° E 21:24:05 10° S
Abrixas rocket 3.4 21:16:47 10° WNW 21:19:52 39° N 21:22:57 10° E
Tiangong 1 0.7 21:17:40 10° WSW 21:20:27 64° S 21:23:13 10° E
MetOp-B 4.3 21:15:30 10° SSE 21:20:45 61° ENE 21:26:02 10° N
Cosmos 2016 Rocket 4.4 21:15:53 10° N 21:21:55 47° ENE 21:27:50 10° SSE
Cosmos 2263 Rocket 3.9 21:22:53 10° SE 21:25:28 13° E 21:28:02 10° ENE
ERS-1 Rocket 3.0 21:22:38 10° SSE 21:27:40 89° ENE 21:32:44 10° NNW
Okean 3 Rocket 3.6 21:23:10 10° S 21:27:41 88° W 21:32:11 10° N
Milstar 3 Cent rocket 4.5 21:21:48 10° WSW 21:27:54 26° S 21:37:27 11° SE
ATLAS 5 CENTAUR R/B 1.9 21:26:26 10° SW 21:31:06 86° NW 21:36:14 10° NE
Cosmos 1300 3.9 21:29:21 10° NNE 21:32:39 27° ENE 21:35:17 14° SE
YAOGAN 6 3.7 21:29:16 10° S 21:32:44 42° W 21:36:16 10° NNW
H-2A R/B 2.8 21:29:37 11° SE 21:34:19 43° ENE 21:39:26 10° N
Cosmos 1726 2.9 21:32:03 10° N 21:35:29 36° ENE 21:38:08 15° SE
Cosmos 1340 Rocket 4.3 21:35:43 10° SW 21:39:30 40° WNW 21:43:22 10° N
Cosmos 1818 4.0 21:35:01 10° NW 21:40:22 58° WSW 21:45:22 12° SSE
Cosmos 2237 Rocket 4.3 21:37:31 10° NW 21:41:39 21° W 21:45:46 10° SSW
Cosmos 1741 Rocket 4.4 21:37:29 10° SSW 21:42:47 70° WNW 21:48:06 10° NNE
Cosmos 1766 Rocket 3.5 21:38:55 10° S 21:43:11 65° E 21:47:30 10° NNE
Terra 3.2 21:40:45 12° ESE 21:44:08 25° ENE 21:48:02 10° N
YAOGAN 11 4.2 21:44:31 13° SSE 21:48:31 80° ENE 21:53:05 10° NNW
Cosmos 1328 Rocket 4.1 21:44:42 10° N 21:48:52 43° ENE 21:51:49 17° SE
USA 245 3.1 21:46:50 16° SSE 21:49:26 79° ENE 21:53:38 10° N
Cosmos 1603 3.8 21:43:48 10° NNW 21:49:29 69° ENE 21:53:56 16° SE
Cosmos 332 Rocket 4.0 21:47:58 10° NNW 21:52:50 60° ENE 21:56:25 18° SE
Cosmos 1515 Rocket 4.4 21:49:31 10° N 21:53:32 35° ENE 21:56:08 18° SE
SL-08 RB Rocket 3.7 21:49:54 15° SSE 21:53:43 78° ENE 21:58:20 10° N
Cosmos 2228 Rocket 3.5 21:51:58 10° N 21:56:27 49° ENE 21:59:30 19° SSE
Cosmos 1151 Rocket 4.1 21:54:30 10° NNE 21:58:27 31° ENE 22:00:51 19° SE
Cosmos 1743 Rocket 4.0 21:56:33 17° SSE 21:59:29 43° E 22:03:36 10° NNE
H-2A R/B 3.4 21:57:03 15° ESE 21:59:34 25° ENE 22:03:04 10° NNE
Cosmos 1674 3.8 21:57:37 10° SSW 22:01:14 43° WNW 22:04:51 10° N
Cosmos 1459 Rocket 4.4 21:55:48 10° NNW 22:02:02 63° W 22:08:08 10° S
H-2A ROCKET BODY 4.0 22:01:14 10° S 22:05:01 19° SE 22:13:25 10° E
Cosmos 2084 4.3 22:01:24 10° SW 22:05:15 48° NW 22:08:58 10° NNE
Cosmos 1943 3.7 22:00:11 10° NNW 22:05:39 48° ENE 22:09:32 19° SE
SL-16 R/B 3.6 22:01:10 10° NW 22:06:07 32° WSW 22:11:03 10° SSW
Cosmos 1455 4.2 22:03:45 10° NNE 22:06:12 16° ENE 22:07:41 13° E
ARGOS 3.4 22:01:30 12° S 22:06:29 69° WSW 22:11:54 10° NNW
IGS 5A 4.4 22:04:43 20° ESE 22:07:00 35° ENE 22:10:47 10° N
Cosmos 2061 Rocket 4.5 22:02:36 10° NNW 22:08:54 63° W 22:15:12 10° S
DMSP B5D2-2 4.3 22:04:03 10° NNE 22:09:08 49° E 22:12:46 18° SSE
Cosmos 1356 4.5 22:11:02 25° ESE 22:11:58 29° E 22:15:03 10° NNE
ERBS 2.7 22:08:47 10° NW 22:12:08 54° NE 22:13:54 24° ESE
Nimbus 7 Rocket 4.4 22:09:26 10° NNE 22:15:31 81° ESE 22:21:29 10° SSW
Cosmos 2123 Rocket 3.9 22:11:01 10° S 22:17:06 84° E 22:23:20 10° N
Cosmos 1814 Rocket 4.0 22:12:37 10° NNW 22:18:00 86° ENE 22:21:25 23° SSE
Cosmos 1486 Rocket 4.0 22:20:43 16° S 22:24:50 61° ESE 22:30:04 10° NNE
SPOT 1/Viking Rocket 3.9 22:25:32 18° S 22:29:18 61° WSW 22:34:25 10° NNW
Cosmos 841 Rocket 3.6 22:24:23 10° NNW 22:29:39 68° ENE 22:32:30 27° SE
Cosmos 1763 Rocket 3.4 22:27:05 10° NNW 22:32:14 90° NE 22:35:00 28° SSE
Cosmos 1703 3.8 22:31:38 32° SE 22:32:51 42° E 22:36:38 10° NNE
Cosmos 220 Rocket 4.0 22:30:13 13° SSW 22:34:10 83° WNW 22:38:35 10° NNE
Meteor 1-11 4.3 22:32:13 20° S 22:36:18 73° E 22:42:07 10° NNE
Cosmos 1725 Rocket 4.3 22:32:44 10° NNW 22:38:57 66° W 22:43:35 18° S
SPOT 5 4.3 22:37:41 12° SSW 22:41:33 33° W 22:46:08 10° NNW
Cosmos 371 Rocket 3.7 22:38:30 10° NNW 22:43:14 57° WSW 22:45:45 26° S
Cosmos 2058 2.9 22:41:53 33° S 22:43:41 73° E 22:47:54 10° NNE
PSLV R/B 3.5 22:43:44 42° E 22:43:52 43° ENE 22:46:36 10° N
Lacrosse 5 2.3 22:39:42 10° WNW 22:44:34 49° SW 22:46:42 30° S
deb Chang Zheng 4 3.7 22:43:46 10° NNE 22:48:05 57° ESE 22:49:37 36° SSE
Meteor 1-27 4.3 22:44:04 10° NNW 22:49:55 85° W 22:53:07 28° S
Tiangong 1 1.7 22:53:12 10° W 22:55:09 39° WSW 22:55:09 39° WSW
CZ-4C R/B 3.4 22:56:27 21° ESE 22:56:27 21° ESE 23:00:31 10° ENE
RESURS DK-1 3.9 22:52:53 10° NW 22:56:24 27° WSW 22:58:06 20° SW
Abrixas rocket 2.1 22:53:31 10° WNW 22:56:45 64° SSW 22:56:48 64° SSW
USA 234 3.6 22:51:22 10° NE 22:57:53 70° NW 23:04:22 10° WSW
Cosmos 1464 Rocket 4.2 22:58:08 10° N 23:04:10 56° ENE 23:06:58 32° SE
Cosmos 1500 Rocket 4.4 23:01:39 20° SW 23:04:33 49° WNW 23:08:54 10° N
Cosmos 2151 3.5 23:02:31 25° SSW 23:04:50 57° W 23:09:06 10° N
Cosmos 1626 2.2 23:05:11 42° SSW 23:06:18 70° W 23:10:02 10° N
Cosmos 2263 Rocket 2.1 23:04:26 19° SSW 23:08:33 85° WNW 23:14:11 10° NNE
Cosmos 1503 Rocket 3.9 23:08:10 31° S 23:10:40 80° ESE 23:15:52 10° NNE
COSMOS 2406 4.5 23:05:56 10° N 23:10:59 32° NE 23:14:10 19° ESE
Cosmos 1666 Rocket 4.2 23:11:30 38° ESE 23:12:14 41° E 23:16:26 10° NNE
H-2A R/B 3.7 23:10:15 14° SW 23:13:52 27° W 23:18:24 10° NW
CZ-4 R/B 3.9 23:16:04 10° N 23:20:57 75° WNW 23:23:08 32° SSW
Terra 2.8 23:19:38 25° SW 23:21:41 37° W 23:26:07 10° NNW
Cosmos 1805 Rocket 3.4 23:22:29 52° S 23:23:30 82° E 23:27:51 10° N
Cosmos 1633 Rocket 3.3 23:28:53 48° ESE 23:29:23 51° E 23:33:36 10° NNE
CZ-4B R/B 3.6 23:24:38 10° NNE 23:29:57 79° WNW 23:32:20 33° SSW
Cosmos 968 Rocket 3.9 23:33:28 40° SE 23:34:19 43° ESE 23:39:17 10° NNE
Cosmos 540 Rocket 3.5 23:29:27 10° NNW 23:34:36 69° WSW 23:36:05 45° S
H-2A R/B 3.4 23:34:10 26° SW 23:35:28 31° W 23:39:16 10° NW
Tsikada Rocket 4.4 23:33:44 36° SE 23:35:59 51° E 23:42:05 10° NNE
CZ-2C R/B 3.6 23:37:55 36° SE 23:40:07 57° ENE 23:45:40 10° N
Cosmos 1455 3.2 23:38:29 10° NNW 23:42:04 36° W 23:42:40 34° WSW
Cosmos 1844 Rocket 3.2 23:41:56 38° SE 23:42:44 40° ESE 23:47:56 10° NE
Cosmos 1869 3.2 23:39:50 10° NNW 23:43:47 76° W 23:44:06 70° SW
Cosmos 304 Rocket 4.4 23:42:20 10° NNW 23:46:51 43° WSW 23:47:54 37° SW
Cosmos 2084 Rocket 3.8 23:46:19 10° NNW 23:50:02 48° NE 23:50:36 44° ENE
Cosmos 1315 Rocket 4.4 23:50:40 22° E 23:50:40 22° E 23:53:22 10° NE
CZ-4C R/B 4.1 23:49:57 41° SW 23:50:40 46° W 23:54:54 10° NNW
Cosmos 2242 Rocket 3.6 23:49:07 10° N 23:53:43 70° E 23:54:26 58° SE
Cosmos 1400 Rocket 3.2 23:55:02 51° E 23:55:02 51° E 23:59:04 10° NNE
